Weather in Baksheyevo

Russia / Vladimir Oblast     56°26′57″N   38°42′17″E
temp.,
°C
wind,
m/s
gust,
m/s
humid.,
%
clouds,
%
prec.,
mm/h
press.,
hPa
HPBL,
m
7 march, sun
sun700:00−13sw36920 0.0 1011106
03:00−12ssw5119127 0.0 1007291
06:00−8ssw71492100 0.2 1002773
09:00−6ssw71493100 1.4 997999
12:00−4sw71493100 1.6 9941106
15:00−4nw51174100 3.6 9921026
18:00−5nnw1281100 0.0 99221
21:00−8wsw2383100 0.0 99229
8 march, mon
mon800:00−8wnw3895100 0.5 993569
03:00−10wsw399592 0.7 994232
06:00−9sw499599 0.3 994598
09:00−8w489299 1.1 995687
12:00−6n4685100 0.4 997811
15:00−6nnw5783100 0.9 1001996
18:00−9nw4991100 0.1 1004547
21:00−13nnw399494 0.2 1007281
9 march, tue
tue900:00−13nnw389586 0.1 1009271
03:00−16nnw379789 0.1 1011206
06:00−19nnw379896 0.1 1013197
09:00−19nnw369797 0.1 1015242
12:00−15nnw359090 0.0 1016430
15:00−15nw468895 0.1 1018541
18:00−18nw389698 0.0 1018267
21:00−22nnw389793 0.0 1021192
10 march, wed
wed1000:00−25nnw33996 0.0 102376
03:00−26nnw239910 0.0 102446
06:00−27nnw23999 0.0 102540
09:00−23nnw24944 0.0 1026151
12:00−17n23790 0.0 1027401
15:00−14nnw237625 0.0 1027637
18:00−17nw229157 0.0 102720
21:00−20wnw229329 0.0 102820
11 march, thu
thu1100:00−21wnw228825 0.0 102820
03:00−22w118527 0.0 102920
06:00−22sw228268 0.0 102820
09:00−17s238453 0.0 1028126
12:00−11s367519 0.0 1026330
15:00−9s598627 0.0 1024564
18:00−11s4109499 0.0 1023401
21:00−12s5119599 0.1 1022387